Retour au catalogue

STARLINK-4271

ActifCommunicationsVLEO
NORAD 53012·PAYLOAD·🇺🇸 United States

Lancé Jul 7, 2022 depuis Cape Canaveral Space Force Station

Loading…

Prochains Passages (prochaines 24 heures)

TLE

FraisSource: CelesTrak SupGP

Époque: Sep 15, 2026, 01:32 UTC

1 53012C 22076AC  26258.06437500  .00041557  00000+0  13375-2 0  2586
2 53012  53.1600 317.0874 0001046  86.4804  86.4753 15.31654442    18

Suivez STARLINK-4271 en temps réel avec AllMySat

Download on the App Store